Weather History for Marysville, OH

Change the Weather History Date:

Wednesday, November 27, 2013

  Actual Average (KDLZ) Record (KDLZ)
Temperature  
Mean Temperature 26 °F -  
Max Temperature 31 °F 47 °F 66 °F (1965)
Min Temperature 22 °F 30 °F 7 °F (1990)
Degree Days  
Heating Degree Days 38    
Moisture  
Dew Point 17 °F    
Average Humidity 68    
Maximum Humidity 85    
Minimum Humidity 42    
Precipitation  
Precipitation 0.00 in - - ()
Sea Level Pressure  
Sea Level Pressure 29.99 in    
Wind  
Wind Speed 13 mph (NW)    
Max Wind Speed 23 mph    
Max Gust Speed 30 mph    
Visibility 10 miles    
Events      
Averages and records for this station are not official NWS values.
T = Trace of Precipitation, MM = Missing Value Source: NWS Daily Summary

Daily Weather History Graph

Daily Weather History Graph

Search for Another Location

Airport:

Trip Planner

Search our weather history database for the weather conditions in past years. The results will help you decide how hot, cold, wet, or windy it might be!

Date:

Astronomy

Nov. 27, 2013 Rise Set
Actual Time 7:32 AM EST 5:09 PM EST
Civil Twilight 7:02 AM EST 5:39 PM EST
Nautical Twilight 6:29 AM EST 6:12 PM EST
Astronomical Twilight 5:56 AM EST 6:45 PM EST
Moon 1:33 AM EST (11/27) 1:46 PM EST (11/27)
Length of Visible Light 10h 36m
Length of Day
9h 36m
Waning Crescent, 32% of the Moon is Illuminated
Nov 27
Waning Crescent
Dec 2
New
Dec 9
First Quarter
Dec 17
Full
Dec 25
Last Quarter

Hourly Weather History & Observations

Time (EST) Temp. Windchill Dew Point Humidity Pressure Visibility Wind Dir Wind Speed Gust Speed Precip Events Conditions
12:14 AM 31.5 °F 23.5 °F 26.2 °F 81% 29.88 in 10.0 mi North 9.2 mph - N/A   Overcast
12:35 AM 31.5 °F 22.3 °F 26.4 °F 82% 29.87 in 10.0 mi NNW 11.5 mph 17.3 mph N/A   Overcast
12:54 AM 31.1 °F 20.9 °F 26.6 °F 83% 29.86 in 7.0 mi NNW 13.8 mph 18.4 mph N/A   Overcast
1:14 AM 31.1 °F 20.9 °F 26.6 °F 83% 29.85 in 10.0 mi NNW 13.8 mph 20.7 mph N/A   Overcast
1:35 AM 31.3 °F 22.7 °F 26.6 °F 83% 29.87 in 10.0 mi NNW 10.4 mph 20.7 mph N/A   Overcast
1:54 AM 31.1 °F 18.9 °F 26.4 °F 83% 29.86 in 10.0 mi NNW 19.6 mph 26.5 mph N/A   Overcast
2:14 AM 30.2 °F 19.3 °F 25.3 °F 82% 29.87 in 10.0 mi NNW 15.0 mph 20.7 mph N/A   Overcast
2:35 AM 29.3 °F 19.1 °F 23.9 °F 80% 29.88 in 10.0 mi North 12.7 mph 26.5 mph N/A   Overcast
2:54 AM 29.3 °F 18.2 °F 23.7 °F 80% 29.88 in 10.0 mi NNW 15.0 mph - N/A   Overcast
3:14 AM 28.9 °F 19.2 °F 21.9 °F 75% 29.89 in 10.0 mi NNW 11.5 mph 20.7 mph N/A   Overcast
3:35 AM 28.4 °F 17.5 °F 20.1 °F 71% 29.88 in 10.0 mi North 13.8 mph 19.6 mph N/A   Overcast
3:54 AM 28.2 °F 19.5 °F 19.4 °F 70% 29.88 in 10.0 mi North 9.2 mph 16.1 mph N/A   Overcast
4:14 AM 28.2 °F 20.2 °F 19.4 °F 70% 29.88 in 10.0 mi NNW 8.1 mph - N/A   Overcast
4:34 AM 27.9 °F 17.8 °F 17.8 °F 66% 29.88 in 10.0 mi NNW 11.5 mph 19.6 mph N/A   Overcast
4:54 AM 26.6 °F 15.2 °F 17.6 °F 69% 29.88 in 10.0 mi NNW 13.8 mph 18.4 mph N/A   Mostly Cloudy
5:15 AM 25.2 °F 13.9 °F 16.5 °F 70% 29.90 in 10.0 mi NNW 12.7 mph 19.6 mph N/A   Scattered Clouds
5:34 AM 23.9 °F 10.8 °F 16.5 °F 73% 29.91 in 10.0 mi NNW 16.1 mph - N/A   Clear
5:55 AM 23.7 °F 13.3 °F 16.7 °F 75% 29.91 in 10.0 mi NW 10.4 mph - N/A   Clear
6:14 AM 23.5 °F 13.7 °F 16.7 °F 75% 29.92 in 10.0 mi NW 9.2 mph - N/A   Scattered Clouds
6:34 AM 23.9 °F 13.5 °F 17.4 °F 76% 29.92 in 10.0 mi NNW 10.4 mph - N/A   Mostly Cloudy
6:55 AM 24.8 °F 13.4 °F 18.3 °F 76% 29.92 in 10.0 mi NNW 12.7 mph 18.4 mph N/A   Overcast
7:14 AM 25.3 °F 14.7 °F 19.0 °F 77% 29.93 in 10.0 mi NNW 11.5 mph 19.6 mph N/A   Overcast
7:34 AM 25.2 °F 12.9 °F 19.0 °F 78% 29.94 in 10.0 mi NNW 15.0 mph 23.0 mph N/A   Overcast
7:55 AM 25.2 °F 12.9 °F 19.4 °F 79% 29.95 in 10.0 mi NNW 15.0 mph 19.6 mph N/A   Overcast
8:14 AM 25.2 °F 12.9 °F 19.9 °F 81% 29.95 in 7.0 mi NNW 15.0 mph - N/A   Overcast
8:34 AM 25.2 °F 14.4 °F 20.7 °F 83% 29.95 in 2.0 mi NNW 11.5 mph 17.3 mph N/A   Overcast
8:54 AM 25.3 °F 13.6 °F 20.3 °F 81% 29.96 in 3.0 mi NNW 13.8 mph 19.6 mph N/A   Overcast
9:14 AM 25.3 °F 13.6 °F 19.2 °F 78% 29.96 in 7.0 mi NNW 13.8 mph - N/A   Overcast
9:34 AM 24.8 °F 10.7 °F 17.4 °F 74% 29.97 in 10.0 mi NNW 19.6 mph 29.9 mph N/A   Overcast
9:54 AM 25.2 °F 12.0 °F 16.5 °F 70% 29.97 in 10.0 mi NNW 17.3 mph 24.2 mph N/A   Overcast
10:14 AM 25.3 °F 12.6 °F 14.7 °F 64% 29.98 in 10.0 mi North 16.1 mph 28.8 mph N/A   Overcast
10:34 AM 25.5 °F 13.8 °F 13.1 °F 59% 29.98 in 10.0 mi North 13.8 mph 26.5 mph N/A   Overcast
10:54 AM 25.7 °F 10.8 °F 12.2 °F 57% 29.98 in 10.0 mi NNW 23.0 mph - N/A   Overcast
11:15 AM 25.7 °F 13.5 °F 12.0 °F 56% 29.98 in 10.0 mi NNW 15.0 mph 24.2 mph N/A   Overcast
11:34 AM 25.7 °F 11.9 °F 9.9 °F 51% 29.97 in 10.0 mi NNW 19.6 mph 26.5 mph N/A   Overcast
11:54 AM 27.0 °F 15.6 °F 10.6 °F 50% 29.96 in 10.0 mi NNW 13.8 mph 24.2 mph N/A   Mostly Cloudy
12:15 PM 27.0 °F 15.2 °F 11.1 °F 51% 29.96 in 10.0 mi NW 15.0 mph 24.2 mph N/A   Scattered Clouds
12:34 PM 27.5 °F 15.9 °F 10.2 °F 48% 29.96 in 10.0 mi NNW 15.0 mph - N/A   Scattered Clouds
12:54 PM 27.3 °F 13.3 °F 9.3 °F 47% 29.96 in 10.0 mi NNW 21.9 mph 27.6 mph N/A   Scattered Clouds
1:14 PM 28.6 °F 15.6 °F 10.2 °F 46% 29.96 in 10.0 mi NNW 19.6 mph 26.5 mph N/A   Scattered Clouds
1:34 PM 28.6 °F 16.8 °F 10.6 °F 47% 29.96 in 10.0 mi NNW 16.1 mph 25.3 mph N/A   Mostly Cloudy
1:54 PM 28.2 °F 15.5 °F 8.8 °F 44% 29.96 in 10.0 mi NNW 18.4 mph 24.2 mph N/A   Mostly Cloudy
2:14 PM 29.1 °F 17.1 °F 9.1 °F 43% 29.96 in 10.0 mi NNW 17.3 mph 24.2 mph N/A   Scattered Clouds
2:34 PM 28.4 °F 15.4 °F 8.4 °F 43% 29.97 in 10.0 mi NNW 19.6 mph 27.6 mph N/A   Mostly Cloudy
2:54 PM 29.3 °F 17.7 °F 8.8 °F 42% 29.98 in 10.0 mi NNW 16.1 mph 21.9 mph N/A   Mostly Cloudy
3:14 PM 28.4 °F 18.0 °F 9.1 °F 44% 29.99 in 10.0 mi NNW 12.7 mph 21.9 mph N/A   Mostly Cloudy
3:34 PM 28.9 °F 16.9 °F 9.1 °F 43% 30.00 in 10.0 mi NNW 17.3 mph 25.3 mph N/A   Scattered Clouds
3:54 PM 28.4 °F 16.6 °F 10.0 °F 46% 30.01 in 10.0 mi NNW 16.1 mph 21.9 mph N/A   Mostly Cloudy
4:15 PM 28.4 °F 17.0 °F 11.1 °F 48% 30.02 in 10.0 mi NW 15.0 mph 19.6 mph N/A   Overcast
4:34 PM 28.4 °F 16.6 °F 11.5 °F 49% 30.03 in 10.0 mi NW 16.1 mph 21.9 mph N/A   Overcast
4:54 PM 28.0 °F 16.5 °F 12.0 °F 51% 30.04 in 10.0 mi NW 15.0 mph 21.9 mph N/A   Overcast
5:14 PM 27.5 °F 17.4 °F 12.6 °F 54% 30.05 in 10.0 mi NW 11.5 mph 20.7 mph N/A   Overcast
5:34 PM 27.5 °F 16.8 °F 12.4 °F 53% 30.06 in 10.0 mi NW 12.7 mph 16.1 mph N/A   Overcast
5:54 PM 26.6 °F 16.2 °F 12.4 °F 55% 30.07 in 10.0 mi NW 11.5 mph 16.1 mph N/A   Mostly Cloudy
6:14 PM 27.1 °F 16.4 °F 14.4 °F 59% 30.08 in 10.0 mi WNW 12.7 mph 18.4 mph N/A   Overcast
6:35 PM 25.5 °F 14.3 °F 15.3 °F 65% 30.09 in 10.0 mi WNW 12.7 mph 20.7 mph N/A   Mostly Cloudy
6:54 PM 24.8 °F 11.9 °F 15.8 °F 69% 30.10 in 10.0 mi WNW 16.1 mph - N/A   Scattered Clouds
7:14 PM 24.4 °F 14.2 °F 17.2 °F 74% 30.11 in 10.0 mi WNW 10.4 mph 16.1 mph N/A   Clear
7:35 PM 23.9 °F 12.9 °F 17.6 °F 77% 30.12 in 10.0 mi WNW 11.5 mph - N/A   Scattered Clouds
7:54 PM 23.9 °F 14.2 °F 18.3 °F 79% 30.13 in 10.0 mi WNW 9.2 mph - N/A   Scattered Clouds
8:14 PM 23.7 °F 12.1 °F 18.3 °F 80% 30.13 in 10.0 mi WNW 12.7 mph 17.3 mph N/A   Scattered Clouds
8:35 PM 23.4 °F 12.8 °F 18.5 °F 82% 30.13 in 10.0 mi WNW 10.4 mph - N/A   Mostly Cloudy
8:54 PM 23.9 °F 12.3 °F 18.9 °F 81% 30.15 in 10.0 mi WNW 12.7 mph 18.4 mph N/A   Mostly Cloudy
9:14 PM 23.9 °F 14.2 °F 19.0 °F 82% 30.16 in 10.0 mi WNW 9.2 mph 17.3 mph N/A   Overcast
9:35 PM 23.4 °F 11.6 °F 18.9 °F 83% 30.16 in 10.0 mi WNW 12.7 mph 16.1 mph N/A   Mostly Cloudy
9:54 PM 23.2 °F 13.3 °F 18.9 °F 84% 30.17 in 10.0 mi WNW 9.2 mph - N/A   Scattered Clouds
10:14 PM 23.0 °F 13.9 °F 18.9 °F 84% 30.17 in 10.0 mi WNW 8.1 mph - N/A   Scattered Clouds
10:35 PM 23.0 °F 13.9 °F 19.0 °F 85% 30.18 in 10.0 mi WNW 8.1 mph - N/A   Mostly Cloudy
10:54 PM 22.8 °F 13.6 °F 18.9 °F 85% 30.18 in 10.0 mi WNW 8.1 mph - N/A   Mostly Cloudy
11:14 PM 24.4 °F 13.5 °F 19.8 °F 82% 30.19 in 10.0 mi West 11.5 mph - N/A   Overcast
11:34 PM 24.6 °F 14.4 °F 19.9 °F 82% 30.20 in 10.0 mi WNW 10.4 mph - N/A   Overcast
11:54 PM 24.4 °F 16.5 °F 19.2 °F 81% 30.21 in 10.0 mi WNW 6.9 mph - N/A   Overcast